Flag for Mongolia Weather past 2 weeks in Ulaanbaatar, Mongolia

Now
25 °F

Clear.


Feels Like: 20 °F
Forecast: 15 / 48 °F
Wind: 3 mph from Southeast

Location: Ulan-Bator

Current Time: Apr 18, 2015 at 11:11:12 PM

Latest Report: Apr 18, 2015 at 10:30 PM


Visibility: 10 mi

Pressure: 30.12 "Hg

Humidity: 39%

Dew point: 3 °F

Location of UlaanbaatarLocation

Historic Weather in Ulaanbaatar — Graph

°F

Ulaanbaatar temperature yesterday

Maximum temperature yesterday: 57 °F (at 1:30 PM)
Minimum temperature yesterday: 21 °F (at 5:00 AM)
Average temperature yesterday: 39 °F

Past Weeks' High & Low Weather Summary

 TemperatureHumidityPressure
High70 °F (Apr 13, 6:00 PM)93% (Apr 15, 6:30 AM)30.48 "Hg (Apr 15, 6:30 AM)
Low1 °F (Apr 5, 8:00 AM)11% (Apr 14, 3:00 PM)29.27 "Hg (Apr 14, 6:30 PM)
Average31 °F53%30.02 "Hg
* Reported Apr 3 10:00 PM — Apr 18 10:00 PM, Ulaanbaatar, Weather by CustomWeather, © 2015

Note: Actual official high and low records may vary slightly from our data, if they occured in-between our weather recording intervals... More about our weather records

Advertising

Ulaanbaatar weather history for previous 24 hours

 ConditionsComfort  
Time TempWeatherWind HumidityBarometerVisibility
10:00 PM
Sat, Apr 18
28 °FClear.3 mph37%30.12 "Hg10 mi
9:30 PM36 °FSunny.3 mph23%30.12 "Hg10 mi
9:00 PM36 °FSunny.6 mph25%30.09 "Hg10 mi
8:30 PM37 °FSunny.8 mph23%30.09 "Hg10 mi
8:00 PM39 °FSunny.10 mph22%30.09 "Hg10 mi
7:30 PM39 °FPassing clouds.13 mph22%30.09 "HgN/A
7:00 PM39 °FPassing clouds.13 mph22%30.09 "HgN/A
6:30 PM41 °FPassing clouds.15 mph22%30.07 "HgN/A
6:00 PM41 °FPassing clouds.17 mph22%30.07 "HgN/A
5:30 PM41 °FSunny.15 mph19%30.07 "Hg10 mi
5:00 PM39 °FPassing clouds.13 mph22%30.07 "HgN/A
4:30 PM39 °FPassing clouds.15 mph22%30.09 "HgN/A
4:00 PM39 °FPassing clouds.17 mph24%30.09 "HgN/A
3:30 PM39 °FPassing clouds.15 mph26%30.09 "HgN/A
3:00 PM37 °FPassing clouds.17 mph28%30.09 "HgN/A
2:30 PM37 °FScattered clouds.17 mph28%30.09 "HgN/A
2:00 PM37 °FScattered clouds.15 mph28%30.12 "HgN/A
1:30 PM36 °FScattered clouds.20 mph32%30.12 "HgN/A
1:00 PM36 °FScattered clouds.17 mph32%30.12 "HgN/A
12:30 PM36 °FScattered clouds.13 mph35%30.12 "HgN/A
12:00 PM34 °FScattered clouds.15 mph38%30.12 "HgN/A
11:30 AM32 °FPassing clouds.15 mph40%30.12 "HgN/A
11:00 AM32 °FPassing clouds.17 mph40%30.09 "HgN/A
10:30 AM30 °FPassing clouds.17 mph51%30.09 "HgN/A
10:00 AM30 °FPassing clouds.20 mph51%30.09 "HgN/A
9:30 AM30 °FPassing clouds.17 mph55%30.09 "HgN/A
9:00 AM28 °FScattered clouds.15 mph64%30.07 "HgN/A
8:30 AM28 °FScattered clouds.13 mph69%30.04 "HgN/A
8:00 AM28 °FPartly sunny.13 mph69%30.04 "HgN/A
7:30 AM28 °FPassing clouds.10 mph74%30.01 "HgN/A
7:00 AM28 °FPassing clouds.10 mph74%30.01 "HgN/A
6:30 AM28 °FPassing clouds.8 mph69%29.98 "HgN/A
6:00 AM30 °FPassing clouds.8 mph64%29.98 "HgN/A
5:30 AM30 °FPassing clouds.13 mph69%29.98 "HgN/A
5:00 AM30 °FPassing clouds.8 mph69%29.98 "HgN/A
4:30 AM32 °FPassing clouds.10 mph69%29.98 "HgN/A
4:00 AM32 °FPassing clouds.13 mph69%29.95 "HgN/A
3:30 AM32 °FPassing clouds.15 mph69%29.95 "HgN/A
3:00 AM32 °FPassing clouds.15 mph69%29.95 "HgN/A
2:30 AM32 °FPassing clouds.10 mph69%29.95 "HgN/A
2:00 AM32 °FPassing clouds.13 mph75%29.92 "HgN/A
1:30 AM34 °FPassing clouds.13 mph70%29.89 "HgN/A
1:00 AM34 °FPassing clouds.8 mph75%29.89 "HgN/A
12:30 AM36 °FPassing clouds.15 mph70%29.86 "HgN/A
12:00 AM36 °FPassing clouds.6 mph75%29.86 "HgN/A
11:30 PM
Fri, Apr 17
36 °FPassing clouds.10 mph75%29.83 "HgN/A
11:00 PM36 °FPassing clouds.10 mph75%29.80 "HgN/A
Weather by CustomWeather, © 2015

See weather overviewHow to use our weather pages